TimeCST,TemperatureF,Dew PointF,Humidity,Sea Level PressureIn,VisibilityMPH,Wind Direction,Wind SpeedMPH,Gust SpeedMPH,PrecipitationIn,Events,Conditions,WindDirDegrees,DateUTC
12:15 AM,42.8,41.0,93,30.07,5.0,SSW,4.6,-,N/A,,Overcast,200,2012-11-06 06:15:00
12:35 AM,42.8,41.0,93,30.07,5.0,South,3.5,-,N/A,,Overcast,190,2012-11-06 06:35:00
12:55 AM,42.8,42.8,100,30.07,4.0,SSW,3.5,-,N/A,,Overcast,200,2012-11-06 06:55:00
1:15 AM,42.8,42.8,100,30.05,5.0,South,5.8,-,N/A,,Overcast,170,2012-11-06 07:15:00
1:35 AM,42.8,41.0,93,30.04,5.0,South,4.6,-,N/A,,Overcast,180,2012-11-06 07:35:00
1:55 AM,42.8,42.8,100,30.04,4.0,SSW,4.6,-,N/A,,Overcast,200,2012-11-06 07:55:00
2:15 AM,42.8,41.0,93,30.03,5.0,South,5.8,-,N/A,,Overcast,170,2012-11-06 08:15:00
2:35 AM,42.8,41.0,93,30.04,5.0,SSW,4.6,-,N/A,,Overcast,200,2012-11-06 08:35:00
2:55 AM,42.8,41.0,93,30.04,7.0,SSW,3.5,-,N/A,,Overcast,200,2012-11-06 08:55:00
3:15 AM,42.8,41.0,93,30.00,7.0,South,5.8,-,N/A,,Overcast,180,2012-11-06 09:15:00
3:35 AM,42.8,41.0,93,30.01,7.0,SSW,5.8,-,N/A,,Overcast,200,2012-11-06 09:35:00
3:55 AM,42.8,41.0,93,29.99,7.0,South,6.9,-,N/A,,Overcast,180,2012-11-06 09:55:00
4:15 AM,42.8,41.0,93,29.99,7.0,SSW,6.9,-,N/A,,Overcast,200,2012-11-06 10:15:00
4:35 AM,42.8,41.0,93,29.99,7.0,South,8.1,-,N/A,,Overcast,190,2012-11-06 10:35:00
4:55 AM,42.8,41.0,93,29.98,5.0,South,9.2,-,N/A,,Overcast,190,2012-11-06 10:55:00
5:15 AM,42.8,41.0,93,29.98,5.0,South,6.9,-,N/A,,Mostly Cloudy,190,2012-11-06 11:15:00
5:35 AM,42.8,41.0,93,29.96,5.0,SSW,9.2,-,N/A,,Overcast,200,2012-11-06 11:35:00
5:55 AM,42.8,41.0,93,29.96,7.0,SSW,9.2,-,N/A,,Overcast,210,2012-11-06 11:55:00
6:15 AM,44.6,41.0,87,29.96,7.0,SW,9.2,-,N/A,,Overcast,220,2012-11-06 12:15:00
6:35 AM,44.6,41.0,87,29.95,7.0,SW,11.5,-,N/A,,Overcast,220,2012-11-06 12:35:00
6:55 AM,42.8,41.0,93,29.97,7.0,SW,9.2,-,N/A,,Mostly Cloudy,230,2012-11-06 12:55:00
7:15 AM,44.6,41.0,87,29.97,7.0,WSW,11.5,19.6,N/A,,Mostly Cloudy,240,2012-11-06 13:15:00
7:35 AM,44.6,41.0,87,29.97,7.0,WSW,8.1,-,N/A,,Mostly Cloudy,240,2012-11-06 13:35:00
7:55 AM,44.6,41.0,87,29.98,7.0,WSW,6.9,-,N/A,,Overcast,240,2012-11-06 13:55:00
8:15 AM,44.6,41.0,87,29.99,7.0,West,9.2,-,N/A,,Overcast,260,2012-11-06 14:15:00
8:35 AM,44.6,41.0,87,29.99,10.0,West,8.1,-,N/A,,Overcast,280,2012-11-06 14:35:00
8:55 AM,46.4,42.8,87,29.99,10.0,WNW,9.2,-,N/A,,Overcast,300,2012-11-06 14:55:00
9:15 AM,46.4,42.8,87,29.99,10.0,NW,8.1,-,N/A,,Overcast,310,2012-11-06 15:15:00
9:55 AM,50.0,42.8,76,29.98,10.0,NW,13.8,21.9,N/A,,Clear,320,2012-11-06 15:55:00
10:15 AM,51.8,41.0,67,29.98,10.0,NW,18.4,26.5,N/A,,Clear,310,2012-11-06 16:15:00
10:35 AM,53.6,41.0,62,29.99,10.0,NNW,17.3,25.3,N/A,,Clear,330,2012-11-06 16:35:00
10:55 AM,53.6,39.2,58,29.99,10.0,NNW,13.8,24.2,N/A,,Clear,330,2012-11-06 16:55:00
11:15 AM,53.6,39.2,58,30.00,10.0,NNW,19.6,23.0,N/A,,Clear,330,2012-11-06 17:15:00
11:35 AM,55.4,37.4,51,29.99,10.0,NW,16.1,23.0,N/A,,Clear,320,2012-11-06 17:35:00
11:55 AM,55.4,37.4,51,29.99,10.0,NNW,15.0,23.0,N/A,,Clear,330,2012-11-06 17:55:00
12:15 PM,55.4,37.4,51,29.98,10.0,NW,18.4,24.2,N/A,,Clear,310,2012-11-06 18:15:00
12:35 PM,55.4,35.6,47,29.97,10.0,NW,18.4,23.0,N/A,,Clear,310,2012-11-06 18:35:00
12:55 PM,57.2,35.6,44,29.97,10.0,NW,15.0,21.9,N/A,,Clear,310,2012-11-06 18:55:00
1:15 PM,57.2,35.6,44,29.97,10.0,NW,11.5,25.3,N/A,,Clear,320,2012-11-06 19:15:00
1:35 PM,57.2,33.8,41,29.97,10.0,NW,16.1,24.2,N/A,,Scattered Clouds,310,2012-11-06 19:35:00
1:55 PM,57.2,33.8,41,29.96,10.0,NW,16.1,25.3,N/A,,Scattered Clouds,320,2012-11-06 19:55:00
2:15 PM,59.0,33.8,39,29.96,10.0,NW,18.4,-,N/A,,Clear,310,2012-11-06 20:15:00
2:35 PM,59.0,32.0,36,29.96,10.0,NW,16.1,23.0,N/A,,Clear,310,2012-11-06 20:35:00
2:55 PM,57.2,30.2,36,29.96,10.0,NW,16.1,26.5,N/A,,Clear,310,2012-11-06 20:55:00
3:15 PM,59.0,30.2,34,29.97,10.0,NW,17.3,31.1,N/A,,Clear,320,2012-11-06 21:15:00
3:35 PM,57.2,30.2,36,29.98,10.0,WNW,16.1,25.3,N/A,,Clear,300,2012-11-06 21:35:00
3:55 PM,57.2,30.2,36,29.97,10.0,NW,17.3,26.5,N/A,,Scattered Clouds,320,2012-11-06 21:55:00
4:15 PM,57.2,33.8,41,29.98,10.0,NNW,11.5,23.0,N/A,,Scattered Clouds,330,2012-11-06 22:15:00
4:35 PM,55.4,33.8,44,29.99,10.0,NW,12.7,20.7,N/A,,Scattered Clouds,320,2012-11-06 22:35:00
4:55 PM,55.4,33.8,44,30.00,10.0,NW,13.8,18.4,N/A,,Scattered Clouds,320,2012-11-06 22:55:00
5:15 PM,53.6,33.8,47,30.01,10.0,NW,8.1,-,N/A,,Clear,320,2012-11-06 23:15:00
5:35 PM,51.8,33.8,50,30.01,10.0,NNW,8.1,-,N/A,,Scattered Clouds,330,2012-11-06 23:35:00
5:55 PM,51.8,35.6,54,30.01,10.0,NW,6.9,-,N/A,,Clear,310,2012-11-06 23:55:00
6:15 PM,48.2,35.6,62,30.02,10.0,NW,6.9,-,N/A,,Clear,310,2012-11-07 00:15:00
6:35 PM,48.2,35.6,62,30.02,10.0,NW,5.8,-,N/A,,Clear,310,2012-11-07 00:35:00
6:55 PM,48.2,35.6,62,30.03,10.0,NW,4.6,-,N/A,,Clear,310,2012-11-07 00:55:00
7:15 PM,44.6,35.6,71,30.04,10.0,WNW,5.8,-,N/A,,Clear,300,2012-11-07 01:15:00
7:35 PM,44.6,35.6,71,30.04,10.0,NW,3.5,-,N/A,,Clear,320,2012-11-07 01:35:00
7:55 PM,42.8,35.6,76,30.04,10.0,NNW,3.5,-,N/A,,Clear,340,2012-11-07 01:55:00
8:15 PM,42.8,33.8,70,30.04,10.0,NNW,3.5,-,N/A,,Scattered Clouds,330,2012-11-07 02:15:00
8:35 PM,42.8,33.8,70,30.04,10.0,West,4.6,-,N/A,,Scattered Clouds,280,2012-11-07 02:35:00
8:55 PM,42.8,35.6,76,30.05,10.0,WNW,4.6,-,N/A,,Scattered Clouds,290,2012-11-07 02:55:00
9:15 PM,44.6,35.6,71,30.05,10.0,NW,5.8,-,N/A,,Mostly Cloudy,310,2012-11-07 03:15:00
9:35 PM,44.6,35.6,71,30.05,10.0,NW,5.8,-,N/A,,Scattered Clouds,320,2012-11-07 03:35:00
9:55 PM,44.6,35.6,71,30.05,10.0,NW,8.1,-,N/A,,Clear,310,2012-11-07 03:55:00
10:15 PM,44.6,35.6,71,30.04,10.0,NW,6.9,-,N/A,,Clear,310,2012-11-07 04:15:00
10:35 PM,44.6,35.6,71,30.04,10.0,NW,6.9,-,N/A,,Clear,310,2012-11-07 04:35:00
10:55 PM,44.6,35.6,71,30.04,10.0,NW,6.9,-,N/A,,Clear,310,2012-11-07 04:55:00
11:15 PM,42.8,35.6,76,30.05,10.0,WNW,8.1,-,N/A,,Clear,300,2012-11-07 05:15:00
11:35 PM,42.8,35.6,76,30.05,10.0,WNW,8.1,-,N/A,,Clear,290,2012-11-07 05:35:00
11:55 PM,41.0,33.8,76,30.05,10.0,West,8.1,-,N/A,,Clear,280,2012-11-07 05:55:00